Location: Fairmont
(43.6520°N, 94.4610°W)
Time: 08:14:14
(UTC-05:00)

Cosmos-2242 - Visible Passes

Search period start: 27 March 2015 00:00
Search period end: 06 April 2015 00:00
Orbit: 595 x 620 km, 82.5° (Epoch: 27 March)

Date Brightness Start Highest point End Pass type
(mag) Time Alt. Az. Time Alt. Az. Time Alt. Az.
27 Mar 6.5 04:51:35 10° NE 04:53:07 12° ENE 04:54:52 10° E visible
27 Mar 3.0 06:26:59 10° NNW 06:31:24 70° W 06:35:46 10° S visible
27 Mar 6.6 20:38:05 10° W 20:40:00 12° WNW 20:41:44 10° NW visible
28 Mar 5.9 05:04:11 10° NNE 05:07:18 19° ENE 05:10:31 10° ESE visible
29 Mar 5.1 05:17:29 10° NNE 05:21:23 30° ENE 05:25:18 10° SE visible
30 Mar 4.0 05:31:04 10° N 05:35:22 51° ENE 05:39:40 10° SSE visible
31 Mar 3.1 05:44:49 10° N 05:49:16 87° E 05:53:40 10° S visible
01 Apr 6.1 04:22:33 10° NNE 04:24:59 15° ENE 04:27:35 10° ESE visible
01 Apr 3.1 05:58:46 10° NNW 06:03:06 54° W 06:07:22 10° S visible
02 Apr 5.4 04:35:34 10° NNE 04:39:07 24° ENE 04:42:42 10° SE visible
02 Apr 3.8 06:12:54 10° NNW 06:16:51 32° W 06:20:42 10° SSW visible
03 Apr 4.5 04:49:00 10° N 04:53:07 38° ENE 04:57:15 10° SE visible
03 Apr 4.4 06:27:20 10° NW 06:30:33 19° W 06:33:36 10° SW visible
04 Apr 3.4 05:02:39 10° N 05:07:04 65° E 05:11:25 10° SSE visible
05 Apr 6.2 03:41:18 10° NE 03:42:35 11° ENE 03:44:06 10° E visible
05 Apr 2.9 05:16:29 10° NNW 05:20:54 73° W 05:25:14 10° S visible
